Home   Weather   Firenze   Past weeks

Flag for Italy Past Weather in Firenze, Italy — Yesterday and Last 2 Weeks

48 °F

Scattered clouds.

Feels Like: 43 °F
Forecast: 39 / 47 °F
Wind: 13 mph from North

Location: Florence / Peretola

Current Time: Mar 20, 2018 at 4:56:35 pm

Latest Report: Mar 20, 2018 at 3:50 pm

Visibility: N/A

Pressure: 29.59 "Hg

Humidity: 66%

Dew Point: 37 °F

Location of FirenzeLocation

Past Weather in Firenze — Graph


Firenze Temperature Yesterday

Maximum temperature yesterday: 46 °F (at 10:50 am)
Minimum temperature yesterday: 41 °F (at 11:20 pm)
Average temperature yesterday: 44 °F

High & Low Weather Summary for the Past Weeks

High63 °F (Mar 9, 4:20 pm)100% (Mar 6, 4:50 am)30.07 "Hg (Mar 6, 4:50 am)
Low36 °F (Mar 20, 6:50 am)39% (Mar 8, 3:20 pm)29.27 "Hg (Mar 6, 1:50 pm)
Average50 °F83%29.66 "Hg
* Reported Mar 5 3:20 pm — Mar 20 3:50 pm, Firenze. Weather by CustomWeather, © 2018

Note: Actual official high and low records may vary slightly from our data, if they occured in-between our weather recording intervals... More about our weather records


Firenze Weather History for the Previous 24 Hours

Scroll right to see more
Time TempWeatherWind HumidityBarometerVisibility
3:50 pm
Tue, Mar 20
48 °FScattered clouds.13 mph66%29.59 "HgN/A
3:20 pm50 °FScattered clouds.9 mph62%29.62 "HgN/A
2:50 pm52 °FPassing clouds.9 mph54%29.62 "HgN/A
2:20 pm54 °FPassing clouds.8 mph54%29.62 "HgN/A
1:50 pm52 °FPassing clouds.10 mph58%29.62 "HgN/A
1:20 pm52 °FPassing clouds.10 mph58%29.65 "HgN/A
12:50 pm52 °FScattered clouds.10 mph58%29.65 "HgN/A
12:20 pm52 °FScattered clouds.10 mph58%29.68 "HgN/A
11:50 am50 °FScattered clouds.9 mph62%29.68 "HgN/A
11:20 am50 °FPartly sunny.8 mph62%29.68 "HgN/A
10:50 am50 °FPartly sunny.9 mph62%29.68 "HgN/A
10:20 am50 °FPartly sunny.7 mph67%29.68 "HgN/A
9:50 am50 °FScattered clouds.8 mph62%29.65 "HgN/A
9:20 am46 °FPassing clouds.2 mph71%29.65 "HgN/A
8:50 am45 °FPassing clouds.2 mph81%29.65 "HgN/A
8:20 am41 °FSunny.1 mph93%29.65 "Hg10 mi
7:50 am39 °FSunny.2 mph100%29.65 "Hg10 mi
7:20 am37 °FPassing clouds.3 mph100%29.62 "HgN/A
6:50 am36 °FSunny.2 mph100%29.62 "Hg10 mi
6:20 am37 °FSunny.2 mph93%29.62 "Hg10 mi
5:50 am37 °FClear.2 mph93%29.62 "Hg10 mi
5:20 am37 °FClear.2 mph100%29.62 "Hg10 mi
4:50 am37 °FClear.2 mph93%29.62 "Hg10 mi
4:20 am37 °FClear.1 mph93%29.62 "Hg10 mi
3:50 am39 °FPassing clouds.1 mph93%29.62 "HgN/A
3:20 am37 °FPassing clouds.1 mph93%29.62 "HgN/A
2:50 am37 °FClear.2 mph100%29.62 "Hg10 mi
2:20 am39 °FClear.1 mph93%29.62 "Hg10 mi
1:50 am39 °FClear.2 mph93%29.62 "Hg10 mi
1:20 am41 °FPassing clouds.2 mph93%29.62 "HgN/A
12:50 am39 °FPassing clouds.1 mph93%29.62 "HgN/A
12:20 am41 °FPassing clouds.2 mph87%29.62 "HgN/A
11:50 pm
Mon, Mar 19
41 °FPassing clouds.2 mph87%29.62 "HgN/A
11:20 pm41 °FPassing clouds.3 mph87%29.62 "HgN/A
10:50 pm43 °FPassing clouds.2 mph81%29.62 "HgN/A
10:20 pm43 °FPassing clouds.2 mph81%29.62 "HgN/A
9:50 pm43 °FPassing clouds.5 mph87%29.62 "HgN/A
9:20 pm43 °FPassing clouds.3 mph87%29.62 "HgN/A
8:50 pm43 °FPassing clouds.3 mph93%29.62 "HgN/A
8:20 pm45 °FPassing clouds.1 mph81%29.59 "HgN/A
7:50 pm45 °FPartly cloudy.3 mph81%29.59 "HgN/A
7:20 pm45 °FPartly cloudy.2 mph76%29.56 "HgN/A
6:50 pm45 °FPassing clouds.1 mph76%29.56 "HgN/A
6:20 pm45 °FPartly sunny.1 mph81%29.56 "HgN/A
5:50 pm46 °FPartly sunny.2 mph76%29.53 "HgN/A
5:20 pm46 °FPartly sunny.2 mph76%29.53 "HgN/A
4:50 pm45 °FBroken clouds.2 mph87%29.53 "HgN/A
4:20 pm45 °FLight rain. Partly sunny.3 mph87%29.53 "HgN/A
Weather by CustomWeather, © 2018

See weather overview